Flag for Austria Weather past 2 weeks in Enns, Upper Austria, Austria

Now
36 °F

Overcast.


Feels Like: N/A
Forecast: 25 / 35 °F
Wind: N/A

Location: Linz / Hoersching-Flughafen

Current Time: Jan 29, 2015 at 2:04:07 PM

Latest Report: Jan 29, 2015 at 1:00 PM


Visibility: 28 mi

Pressure: 29.50 "Hg

Humidity: 81%

Dew point: 30 °F

Location of EnnsLocation

Historic Weather in Enns — Graph

°F

Enns temperature yesterday

Maximum temperature yesterday: 39 °F (at 2:00 PM)
Minimum temperature yesterday: 30 °F (at 10:00 PM)
Average temperature yesterday: 34 °F

Past Weeks' High & Low Weather Summary

 TemperatureHumidityPressure
High43 °F (Jan 22, 3:00 PM)100% (Jan 26, 10:00 PM)30.38 "Hg (Jan 26, 10:00 PM)
Low27 °F (Jan 26, 10:00 PM)66% (Jan 28, 3:00 PM)29.50 "Hg (Jan 29, 1:00 PM)
Average34 °F87%30.03 "Hg
* Reported Jan 14 1:00 PM — Jan 29 1:00 PM, Enns, Weather by CustomWeather, © 2014

Note: Actual official high and low records may vary slightly from our data, if they occured in-between our weather recording intervals... More about our weather records

Advertising

Enns weather history for previous 24 hours

 ConditionsComfort  
Time TempWeatherWind HumidityBarometerVisibility
1:00 PM
Jan 29
36 °FOvercast.N/A81%29.50 "Hg28 mi
12:00 PM35 °FOvercast.3 mph79%29.57 "Hg22 mi
11:00 AMN/APassing clouds.15 mphN/AN/A7 mi
10:00 AM34 °FLow clouds.5 mph93%29.60 "Hg10 mi
9:00 AMN/APassing clouds.2 mphN/AN/A2 mi
8:00 AM31 °FLight snow. Low clouds.N/A97%29.60 "Hg2 mi
7:00 AM30 °FLight snow. Low clouds.N/A98%29.59 "Hg2 mi
6:00 AM30 °FLight snow. Low clouds.N/A98%29.58 "Hg2 mi
5:00 AM30 °FLight snow. Low clouds.N/A98%29.58 "Hg2 mi
4:00 AM30 °FHeavy snow. Low clouds.N/A98%29.60 "Hg2 mi
3:00 AM30 °FHeavy snow. Low clouds.N/A97%29.61 "Hg1 mi
2:00 AM30 °FHeavy snow. Overcast.N/A94%29.64 "Hg1 mi
1:00 AM31 °FOvercast.N/A88%29.64 "Hg7 mi
12:00 AM30 °FOvercast.N/A88%29.67 "Hg9 mi
11:00 PM
Jan 28
31 °FOvercast.5 mph85%29.70 "Hg9 mi
10:00 PM30 °FOvercast.N/A90%29.75 "Hg7 mi
9:00 PM30 °FOvercast.N/A88%29.79 "Hg9 mi
8:00 PMN/APassing clouds.6 mphN/AN/A3 mi
7:00 PM31 °FOvercast.N/A80%29.89 "Hg14 mi
6:00 PM33 °FPassing clouds.N/A74%29.94 "Hg28 mi
5:00 PM35 °FPassing clouds.N/A74%29.96 "Hg28 mi
4:00 PM37 °FScattered clouds.6 mph69%29.98 "Hg28 mi
3:00 PM39 °FPartly sunny.7 mph66%30.00 "Hg19 mi
2:00 PM39 °FOvercast.8 mph67%30.02 "Hg22 mi
Weather by CustomWeather, © 2014

See weather overviewHow to use our weather pages